Location: Aydie
(43.5695°N, 0.1043°W)
Time: 07:47:39
(UTC+00:00)

ISS - Pass Details

Date: 17 November 2025
Orbit: 416 x 420 km, 51.6° (Epoch: 13 December)

Event Time Altitude Azimuth Distance (km) Brightness Sun altitude
Rises 17:07:27 0° 237° (WSW) 2,361 2.1 -6.5°
Reaches altitude 10° 17:09:33 10° 237° (WSW) 1,498 0.7 -6.9°
Maximum altitude 17:12:54 88° 320° (NW) 424 -3.7 -7.4°
Enters shadow 17:16:16 10° 58° (ENE) 1,491 -1.6 -8.0°
